TimePDT,TemperatureF,Dew PointF,Humidity,Sea Level PressureIn,VisibilityMPH,Wind Direction,Wind SpeedMPH,Gust SpeedMPH,PrecipitationIn,Events,Conditions,WindDirDegrees,DateUTC
12:53 AM,64.0,43.0,46,30.06,10.0,Calm,Calm,-,N/A,,Clear,0,2014-04-08 07:53:00
1:53 AM,63.0,42.1,46,30.06,10.0,Calm,Calm,-,N/A,,Clear,0,2014-04-08 08:53:00
2:53 AM,60.1,44.1,55,30.06,10.0,Calm,Calm,-,N/A,,Clear,0,2014-04-08 09:53:00
3:53 AM,57.9,45.0,62,30.05,10.0,Calm,Calm,-,N/A,,Clear,0,2014-04-08 10:53:00
4:53 AM,57.0,44.1,62,30.05,10.0,Calm,Calm,-,N/A,,Clear,0,2014-04-08 11:53:00
5:53 AM,55.9,43.0,62,30.05,10.0,Calm,Calm,-,N/A,,Clear,0,2014-04-08 12:53:00
6:53 AM,57.0,44.1,62,30.08,10.0,Calm,Calm,-,N/A,,Clear,0,2014-04-08 13:53:00
7:53 AM,64.0,41.0,43,30.09,10.0,Calm,Calm,-,N/A,,Clear,0,2014-04-08 14:53:00
8:53 AM,71.1,41.0,34,30.09,10.0,Calm,Calm,-,N/A,,Clear,0,2014-04-08 15:53:00
9:53 AM,77.0,37.9,24,30.09,10.0,Calm,Calm,-,N/A,,Clear,0,2014-04-08 16:53:00
10:53 AM,82.0,39.9,22,30.09,10.0,SSW,4.6,-,N/A,,Clear,200,2014-04-08 17:53:00
11:53 AM,86.0,41.0,20,30.08,10.0,Variable,3.5,-,N/A,,Clear,0,2014-04-08 18:53:00
12:53 PM,89.1,39.9,18,30.05,10.0,South,4.6,-,N/A,,Clear,190,2014-04-08 19:53:00
1:53 PM,93.0,34.0,12,30.02,10.0,Variable,4.6,-,N/A,,Clear,0,2014-04-08 20:53:00
2:53 PM,93.9,35.1,13,30.00,10.0,Variable,5.8,-,N/A,,Clear,0,2014-04-08 21:53:00
3:53 PM,93.9,28.9,10,29.98,10.0,Variable,4.6,-,N/A,,Clear,0,2014-04-08 22:53:00
4:53 PM,91.9,39.0,16,29.97,10.0,West,5.8,16.1,N/A,,Clear,280,2014-04-08 23:53:00
5:53 PM,87.1,34.0,15,29.97,10.0,Variable,6.9,-,N/A,,Clear,0,2014-04-09 00:53:00
6:53 PM,82.9,33.1,17,29.97,10.0,West,4.6,-,N/A,,Clear,270,2014-04-09 01:53:00
7:53 PM,78.1,37.0,23,29.99,10.0,WNW,3.5,-,N/A,,Clear,290,2014-04-09 02:53:00
8:53 PM,75.0,36.0,24,30.01,10.0,Calm,Calm,-,N/A,,Clear,0,2014-04-09 03:53:00
9:53 PM,71.1,39.0,31,30.01,10.0,Calm,Calm,-,N/A,,Clear,0,2014-04-09 04:53:00
10:53 PM,68.0,46.0,45,30.02,10.0,Calm,Calm,-,N/A,,Clear,0,2014-04-09 05:53:00
11:53 PM,64.9,48.0,54,30.03,10.0,Calm,Calm,-,N/A,,Clear,0,2014-04-09 06:53:00